Regional Weather Roundup
Issued by NWS

Home | Current Version | Previous Version | Text Only | Print | Product List | Glossary Off
Versions: 1 2 3 4 5 6 7 8 9 10 11 12 13 14 15 16 17 18 19 20 21 22 23 24 25 26 27

000
ASUS45 KSLC 172310
RWRUT

UTAH REGIONAL WEATHER ROUNDUP
NATIONAL WEATHER SERVICE SALT LAKE CITY UT
500 PM MDT THU APR 17 2014

UTZ001>011-023>025-180000-

NORTHERN UTAH

CITY           SKY/WX    TMP DP  RH WIND       PRES   REMARKS
HILL AFB       SUNNY     67  22  18 S10G22    29.93F
LOGAN          SUNNY     64  26  23 S6        29.93F
OGDEN          SUNNY     67  25  20 SW7       29.91F
PROVO AIRPORT  NOT AVBL
SALT LAKE CITY MOSUNNY   70  26  19 S16       29.90F
VERNAL         SUNNY     64  20  18 S9G18     29.98F
WENDOVER       SUNNY     70  27  19 E10       29.87F
HEBER CITY     SUNNY     66  27  22 W14       29.96F
WEST JORDAN    SUNNY     68  36  30 SE16G24   29.92F

$$

UTZ012>022-026-027-180000-

SOUTHERN UTAH

CITY           SKY/WX    TMP DP  RH WIND       PRES   REMARKS
BRYCE CANYON   SUNNY     63  27  25 SE14      30.09F
CEDAR CITY     SUNNY     74  19  12 S13G26    29.96F
MILFORD        SUNNY     77  22  13 S13G24    29.90F
MOAB/CYNLANDS  SUNNY     70  19  14 VRB5      29.96F
PRICE          SUNNY     66  17  15 SE13G20   30.01F
ST GEORGE      CLEAR     84  28  13 W8G17     29.85F

$$

REGIONAL REPORTS     COLORADO/ARIZONA

CITY           SKY/WX    TMP DP  RH WIND       PRES   REMARKS
CRAIG, CO      MOSUNNY   62  23  22 W13       30.02F
GRAND JUNCTION SUNNY     66  21  18 VRB6      30.01F
RIFLE          SUNNY     64  17  16 W22       30.02S
MONTROSE       SUNNY     67  19  16 W12G18    30.05F
CORTEZ         SUNNY     66  20  17 NW9       30.08F
PAGE, AZ       SUNNY     79  26  14 NE10      29.93F
GRAND CANYON   MOSUNNY   72  17  12 SW9       30.07F
KINGMAN        SUNNY     83  14   7 SW26G32   29.90F
FLAGSTAFF      SUNNY     67  19  16 S16G24    30.10F

$$

REGIONAL REPORTS    NEVADA/IDAHO/WYOMING

CITY           SKY/WX    TMP DP  RH WIND       PRES   REMARKS
LAS VEGAS, NV  PTSUNNY   90  21   8 S12G18    29.74F
ELY            SUNNY     71  23  16 S15G25    29.94F
ELKO           SUNNY     73  25  16 VRB6      29.81F
POCATELLO, ID  MOSUNNY   68  23  18 S20G25    29.88F
BURLEY         MOSUNNY   69  29  22 S14       29.80F
EVANSTON, WY   MOSUNNY   59  23  25 SW22G31   30.00F
ROCK SPRINGS   NOT AVBL

$$



USA.gov is the U.S. government's official web portal to all federal, state and local government web resources and services.